Weather History for EGQK - March, 2013

Change the Weather History Date:

Monday, March 11, 2013

  Actual Average Record
Temperature  
Mean Temperature 30 °F -  
Max Temperature 37 °F 48 °F 55 °F (1997)
Min Temperature 22 °F 36 °F 22 °F (2013)
Degree Days  
Heating Degree Days 36    
Moisture  
Dew Point 22 °F    
Average Humidity 75    
Maximum Humidity 93    
Minimum Humidity 45    
Precipitation  
Precipitation 0.16 in 0.06 in - ()
Sea Level Pressure  
Sea Level Pressure 30.19 in    
Wind  
Wind Speed 5 mph ()    
Max Wind Speed 13 mph    
Max Gust Speed -    
Visibility 6.9 miles    
Events Fog , Snow    
Averages and records for this station are not official NWS values.
T = Trace of Precipitation, MM = Missing Value Source: Averaged Metar Reports

Daily Weather History Graph

Daily Weather History Graph

Search for Another Location

Airport or City:

Trip Planner

Search our weather history database for the weather conditions in past years. The results will help you decide how hot, cold, wet, or windy it might be!

Date:

Astronomy

Mar. 11, 2013 Rise Set
Actual Time 6:40 AM GMT 6:08 PM GMT
Civil Twilight 6:02 AM GMT 6:47 PM GMT
Nautical Twilight 5:17 AM GMT 7:32 PM GMT
Astronomical Twilight 4:30 AM GMT 8:20 PM GMT
Moon 6:04 AM GMT (3/11) 6:14 PM GMT (3/11)
Length of Visible Light 12h 45m
Length of Day
11h 27m
Waning Crescent, 0% of the Moon is Illuminated
Mar 11
Waning Crescent
Mar 11
New
Mar 19
First Quarter
Mar 27
Full
Apr 3
Last Quarter

Hourly Weather History & Observations

Time (GMT) Temp. Windchill Dew Point Humidity Pressure Visibility Wind Dir Wind Speed Gust Speed Precip Events Conditions
12:50 AM 23.0 °F 17.0 °F 21.2 °F 93% 30.21 in 6.2 mi SE 4.6 mph - N/A   Partly Cloudy
1:50 AM 24.8 °F 19.1 °F 23.0 °F 93% 30.21 in 0.2 mi NE 4.6 mph - N/A Snow Snow Showers
2:50 AM 22 °F - 20 °F 88% 30.21 in 0 mi SSW 2.3 mph - - Fog Fog
2:50 AM 23.0 °F - 19.4 °F 86% 30.18 in 0.3 mi SSW 2.3 mph - N/A Fog Fog
3:50 AM 23.0 °F 15.8 °F 19.4 °F 86% 30.21 in 6.2 mi SW 5.8 mph - N/A   Scattered Clouds
4:50 AM 23.0 °F 15.8 °F 21.2 °F 93% 30.18 in 6.2 mi SW 5.8 mph - N/A   Mostly Cloudy
5:50 AM 22 °F - 20 °F 88% 30.22 in 18 mi WSW 4.6 mph - - Snow Snow
5:50 AM 23.0 °F 17.0 °F 19.4 °F 86% 30.21 in 6.2 mi WSW 4.6 mph - N/A   Mostly Cloudy
6:50 AM 24.8 °F 17.9 °F 21.2 °F 86% 30.21 in 6.2 mi SSW 5.8 mph - N/A   Mostly Cloudy
7:50 AM 23.0 °F 14.7 °F 21.2 °F 93% 30.21 in 6.2 mi SW 6.9 mph - N/A   Mostly Cloudy
8:50 AM 25 °F - 22 °F 84% 30.23 in 19 mi SSW 4.6 mph - -   Partly Cloudy
8:50 AM 24.8 °F 19.1 °F 23.0 °F 93% 30.21 in 6.2 mi SSW 4.6 mph - N/A   Scattered Clouds
9:50 AM 28.4 °F 23.3 °F 24.8 °F 86% 30.21 in 6.2 mi SW 4.6 mph - N/A   Mostly Cloudy
10:50 AM 32.0 °F - 26.6 °F 80% 30.21 in 6.2 mi South 2.3 mph - N/A   Mostly Cloudy
11:50 AM 34 °F - 24 °F 55% 30.23 in 31 mi ENE 5.8 mph - -   Partly Cloudy
11:50 AM 33.8 °F 28.6 °F 24.8 °F 70% 30.21 in 6.2 mi ENE 5.8 mph - N/A   Scattered Clouds
12:50 PM 35.6 °F 27.1 °F 23.0 °F 60% 30.21 in 6.2 mi ENE 12.7 mph - N/A   Mostly Cloudy
1:50 PM 35.6 °F 28.0 °F 23.0 °F 60% 30.21 in 6.2 mi ENE 10.4 mph - N/A   Scattered Clouds
2:50 PM 38 °F - 24 °F 45% 30.21 in 31 mi ENE 10.4 mph - -   Scattered Clouds
2:50 PM 37.4 °F 30.3 °F 24.8 °F 60% 30.18 in 6.2 mi ENE 10.4 mph - N/A   Partly Cloudy
3:50 PM 35.6 °F 28.6 °F 23.0 °F 60% 30.18 in 6.2 mi ENE 9.2 mph - N/A   Scattered Clouds
4:50 PM 35.6 °F 32.8 °F 23.0 °F 60% 30.18 in 6.2 mi East 3.5 mph - N/A   Partly Cloudy
5:50 PM 34 °F - 22 °F 48% 30.19 in 47 mi East 2.3 mph - -  
5:50 PM 33.8 °F - 21.2 °F 60% 30.18 in 6.2 mi East 2.3 mph - N/A   Unknown
6:50 PM 30.2 °F - 23.0 °F 75% 30.18 in 6.2 mi SW 1.2 mph - N/A   Unknown
7:50 PM 28.4 °F 24.6 °F 21.2 °F 74% 30.15 in 6.2 mi SSW 3.5 mph - N/A   Unknown
8:50 PM 26 °F - 21 °F 75% 30.17 in 19 mi SW 3.5 mph - -   Partly Cloudy
8:50 PM 26.6 °F 22.6 °F 21.2 °F 80% 30.15 in 6.2 mi SW 3.5 mph - N/A   Scattered Clouds
9:50 PM 26.6 °F 20.0 °F 21.2 °F 80% 30.15 in 6.2 mi SW 5.8 mph - N/A   Mostly Cloudy
10:50 PM 28.4 °F 19.7 °F 21.2 °F 74% 30.15 in 6.2 mi SW 9.2 mph - N/A   Mostly Cloudy
11:50 PM 29 °F - 22 °F 65% 30.15 in 28 mi WSW 8.1 mph - -   Mostly Cloudy
11:50 PM 28.4 °F 20.4 °F 21.2 °F 74% 30.12 in 6.2 mi WSW 8.1 mph - N/A   Mostly Cloudy